Orbital Elements at Epoch 2459000.5 (2020-May-31.0) TDB
Reference: JPL 23 (heliocentric ecliptic J2000)
Element | Value | Uncertainty (1-sigma) | Units |
e | .1693598903065938 | 6.0254e-08 | |
a | 2.597272294337086 | 1.6156e-08 | au |
q | 2.157398543471801 | 1.6399e-07 | au |
i | 17.38537649202834 | 5.1285e-06 | deg |
node | 258.9042649052622 | 2.0829e-05 | deg |
peri | 162.8962524347719 | 3.0039e-05 | deg |
M | 17.22946918577655 | 1.9511e-05 | deg |
tp | 2458927.328147872973 (2020-Mar-18.82814787) | 8.2648e-05 | TDB |
period | 1528.88440622859 4.19 | 1.4265e-05 3.906e-08 | d yr |
n | .2354658066583582 | 2.197e-09 | deg/d |
Q | 3.03714604520237 | 1.8892e-08 | au |
|
| | Orbit Determination Parameters
Additional Information
|